User: anonymous   Login
Location: Unspecified
(0.0000°N, 0.0000°E)
Time: 23:07:45
(UTC+02:00)
Language:

NATO 3D Rocket - Orbit

View from above orbital plane
View from above orbital plane
View from above satellite
View from above satellite

Ground track
Ground track

The orbit data is extracted from the following two-line orbital elements,

1 15392U 84115B   16149.60581015 +.00000203 +00000-0 +45420-4 0  9990
2 15392 021.4913 268.4721 1034257 121.5367 249.0200 12.45528430418238
Epoch (UTC): 28 May 2016 14:32:21
Eccentricity: 0.1034257
inclination: 21.4913°
perigee height: 670 km
apogee height: 2296 km
right ascension of ascending node: 268.4721°
argument of perigee: 121.5367°
revolutions per day: 12.45528430
mean anomaly at epoch: 249.0200°
orbit number at epoch: 41823

The dashed part of the orbit path shows where the satellite is in the earth's shadow,  

DLR